Time[GMT],air_temperature[C](-3m),wind_speed[m/s](-4m),wind_gust[m/s](-4m),visibility[m](-3m),wind_direction[degrees_true](-4m),wind_min[m/s](-4m)
2002-10-04 11:00,9.9,4.0,4.9,1486,26.35,2.55
2002-10-04 12:00,9.9,4.1,4.9,2696,18.76,2.94
2002-10-04 13:00,10.5,2.8,3.5,2944,16.27,1.57
2002-10-04 14:00,11.3,2.1,3.3,2919,27.72,1.18
2002-10-04 15:00,13.0,4.2,5.0,2883,149.40,2.94
2002-10-04 16:00,12.9,6.6,7.8,2562,160.60,4.51
2002-10-04 17:00,12.8,6.6,8.0,2253,148.50,3.92
2002-10-04 18:00,12.9,6.7,7.8,2393,137.30,4.31
2002-10-04 19:00,12.8,7.2,8.6,2921,142.60,4.51
2002-10-04 20:00,13.0,8.0,10.1,2913,153.40,4.90
2002-10-04 21:00,13.0,8.6,10.1,2894,149.80,5.88
2002-10-04 22:00,12.8,8.3,10.1,2873,155.90,5.10
2002-10-04 23:00,12.8,7.9,9.5,2865,141.90,5.49
2002-10-05 00:00,13.0,7.1,8.3,2633,136.70,4.70
2002-10-05 01:00,13.5,7.1,8.0,2770,137.10,4.70
2002-10-05 02:00,13.6,6.3,8.0,2750,142.90,4.12
2002-10-05 03:00,14.0,6.9,8.0,2714,137.30,4.90
2002-10-05 04:00,14.6,8.4,10.1,2626,152.90,5.49
2002-10-05 05:00,14.9,9.4,11.2,2544,160.70,6.27
2002-10-05 06:00,15.0,10.6,12.9,2450,161.80,7.25
2002-10-05 07:00,15.0,10.3,11.9,2490,155.50,6.08
2002-10-05 08:00,15.1,9.7,11.2,2438,159.90,7.06
2002-10-05 09:00,15.6,11.0,12.6,2298,163.70,7.06
2002-10-05 10:00,15.7,10.7,12.9,1988,167.10,7.45
2002-10-05 11:00,15.9,11.4,13.4,1947,174.60,8.43
2002-10-05 12:00,16.3,12.5,14.5,2409,178.80,8.82
2002-10-05 13:00,16.6,12.8,15.4,2050,188.60,9.02
2002-10-05 14:00,16.7,11.8,13.6,1597,200.90,8.62
2002-10-05 15:00,16.6,9.6,12.4,1650,210.00,6.47
2002-10-05 16:00,16.4,9.6,11.2,1477,204.90,6.66
2002-10-05 17:00,16.2,8.5,9.6,2121,208.90,5.88
2002-10-05 18:00,16.8,8.1,9.8,2114,210.20,5.49
2002-10-05 19:00,16.7,7.1,8.9,2443,211.30,5.29
2002-10-05 20:00,16.2,6.7,8.0,2143,193.50,5.10
2002-10-05 21:00,17.1,5.8,6.5,2524,210.40,4.51
2002-10-05 22:00,18.5,3.8,5.1,2885,261.10,2.35
2002-10-05 23:00,17.9,2.1,3.0,2853,252.70,0.39
2002-10-06 00:00,18.5,7.0,9.1,2939,305.20,5.10
2002-10-06 01:00,17.3,8.6,10.7,2925,301.40,5.68
2002-10-06 02:00,16.7,10.1,12.2,2904,306.30,6.27
2002-10-06 03:00,16.0,10.6,13.3,2899,311.10,7.84
2002-10-06 04:00,15.7,12.4,14.7,2878,305.20,8.82
2002-10-06 05:00,14.9,9.5,11.6,2919,304.70,6.08
2002-10-06 06:00,13.7,8.3,10.2,2915,331.45,5.49
2002-10-06 07:00,12.9,7.0,8.6,2929,329.09,4.51
2002-10-06 08:00,12.4,7.9,8.9,2928,324.20,5.49
2002-10-06 09:00,12.1,7.1,8.0,2925,329.95,5.49
2002-10-06 10:00,11.7,6.7,7.7,2930,331.27,4.31
2002-10-06 11:00,11.2,6.8,7.8,2925,321.70,4.90
2002-10-06 12:00,11.3,5.1,6.5,2916,329.84,3.14
2002-10-06 13:00,11.1,6.1,7.4,2891,354.13,3.92
2002-10-06 14:00,11.0,4.0,5.7,2912,348.80,2.16
2002-10-06 15:00,11.9,4.3,5.4,2784,3.02,2.74
2002-10-06 16:00,12.2,4.9,6.2,2924,15.37,2.94
2002-10-06 17:00,12.8,3.7,4.4,2524,29.14,2.35
2002-10-06 18:00,12.9,2.3,3.3,2920,58.90,1.57
2002-10-06 19:00,13.5,1.9,2.7,2934,70.40,1.37
2002-10-06 20:00,14.2,1.6,2.0,2918,106.40,1.18
2002-10-06 21:00,12.9,4.6,5.4,2919,191.40,3.53
2002-10-06 22:00,12.3,4.2,5.1,2814,177.60,2.16
2002-10-06 23:00,12.1,4.6,5.8,2930,183.40,3.14
2002-10-07 00:00,12.1,2.6,3.6,2930,196.90,1.57
2002-10-07 01:00,11.9,1.2,1.9,2937,208.90,0.39
2002-10-07 02:00,11.9,2.8,3.6,2933,168.40,1.96
2002-10-07 03:00,11.9,3.4,4.2,2935,143.20,2.35
2002-10-07 04:00,11.9,3.4,4.3,2941,106.60,2.16
2002-10-07 05:00,11.8,3.7,4.6,2940,101.20,2.55
2002-10-07 06:00,12.0,6.0,7.1,2934,110.30,4.70
2002-10-07 07:00,12.4,5.9,7.0,2937,108.60,4.12
2002-10-07 08:00,12.8,6.4,7.7,2926,128.60,4.31
2002-10-07 09:00,12.8,6.9,8.2,2900,137.30,4.70
2002-10-07 10:00,12.8,6.4,8.0,2889,145.90,4.51
2002-10-07 11:00,12.9,6.4,7.8,2866,150.90,3.72
2002-10-07 12:00,13.0,6.0,6.9,2891,147.40,3.92
2002-10-07 13:00,13.1,6.8,7.6,2852,147.70,4.51
2002-10-07 14:00,13.3,6.0,7.1,2847,165.40,4.12
2002-10-07 15:00,13.5,6.1,7.0,2764,139.90,4.51
2002-10-07 16:00,13.4,5.2,6.2,2742,136.00,3.72
2002-10-07 17:00,13.7,4.9,5.9,2504,145.20,3.72
2002-10-07 18:00,13.7,4.1,4.8,2709,158.90,2.94
2002-10-07 19:00,13.7,4.0,4.7,2614,170.80,2.94
2002-10-07 20:00,13.7,1.2,2.5,2543,191.10,0.39
2002-10-07 21:00,14.0,3.3,4.6,2578,193.40,2.16
2002-10-07 22:00,14.0,4.2,5.1,2509,182.50,3.14
2002-10-07 23:00,14.2,3.7,4.3,2415,241.60,2.74
2002-10-08 00:00,14.4,3.8,4.4,2922,264.10,2.74
2002-10-08 01:00,14.1,2.8,3.8,2883,266.70,1.76
2002-10-08 02:00,13.3,5.1,6.2,2910,271.10,3.33
2002-10-08 03:00,12.9,4.7,5.8,2918,298.70,3.14
2002-10-08 04:00,13.6,7.3,9.0,2936,304.10,4.90
2002-10-08 05:00,12.7,6.4,7.4,2934,312.10,4.31
2002-10-08 06:00,12.1,7.5,8.9,2933,328.65,4.51
2002-10-08 07:00,11.0,7.5,8.6,2936,346.14,5.49
2002-10-08 08:00,10.3,7.2,8.4,2928,336.24,4.90
2002-10-08 09:00,9.5,6.6,8.1,2930,341.03,4.70
2002-10-08 10:00,9.7,7.7,9.1,2933,329.19,5.10
2002-10-08 11:00,9.4,6.7,8.0,2593,319.20,4.31
2002-10-08 12:00,9.2,7.8,9.4,2916,314.60,5.10
2002-10-08 13:00,8.9,6.2,8.0,2906,294.30,4.12
2002-10-08 14:00,9.2,5.7,7.7,2871,300.70,3.53
2002-10-08 15:00,10.0,10.0,12.0,2880,300.60,6.27
2002-10-08 16:00,10.7,8.6,10.8,2838,318.40,6.27
2002-10-08 17:00,11.0,8.1,10.6,2864,306.00,4.90
2002-10-08 18:00,11.7,6.3,7.4,2866,330.50,4.12
2002-10-08 19:00,12.2,6.2,7.9,2924,324.10,3.14
2002-10-08 20:00,13.1,5.5,7.0,2719,334.13,3.72
2002-10-08 21:00,12.4,6.4,7.9,2912,332.93,4.31
2002-10-08 22:00,12.0,6.5,7.8,2931,332.15,3.92
2002-10-08 23:00,11.4,4.7,5.4,2941,325.79,3.14
2002-10-09 00:00,11.3,5.7,7.0,2944,342.65,3.72
2002-10-09 01:00,10.6,8.3,9.7,2933,0.32,5.68
2002-10-09 02:00,9.7,9.1,10.5,2926,6.27,6.08
2002-10-09 03:00,9.2,8.6,10.1,2928,1.75,5.49
2002-10-09 04:00,8.6,8.5,10.1,2916,5.99,5.29
2002-10-09 05:00,8.4,7.2,8.6,2916,3.44,5.29
2002-10-09 06:00,8.2,7.2,9.1,2934,3.03,4.90
2002-10-09 07:00,8.0,8.0,9.7,2930,11.92,5.88
2002-10-09 08:00,7.3,6.7,8.0,2936,24.24,4.70
2002-10-09 09:00,7.1,6.1,7.7,2932,19.57,3.92
2002-10-09 10:00,6.9,5.5,6.7,2935,30.10,3.53
2002-10-09 11:00,7.0,5.3,6.8,1574,25.87,3.72
2002-10-09 12:00,7.3,6.2,7.6,1908,24.82,3.72
2002-10-09 13:00,7.1,5.1,6.8,2691,35.50,3.14
2002-10-09 14:00,7.7,4.2,5.3,2491,55.60,2.16
2002-10-09 15:00,8.3,2.4,4.1,2854,52.10,0.98
2002-10-09 16:00,8.9,0.8,2.3,2870,65.20,0.00
2002-10-09 17:00,8.9,1.6,2.8,2847,122.80,0.00
2002-10-09 18:00,9.1,1.4,2.3,2789,151.50,0.59
2002-10-09 19:00,9.0,1.4,2.8,2871,131.70,0.39
2002-10-09 20:00,9.0,2.1,3.4,2875,143.60,0.59
2002-10-09 21:00,9.0,2.6,3.7,2927,133.60,1.57
2002-10-09 22:00,9.1,1.9,3.0,2938,127.80,0.78
2002-10-09 23:00,9.3,1.4,2.2,2939,161.30,0.59
2002-10-10 00:00,9.5,1.5,2.6,2942,168.30,0.39
2002-10-10 01:00,9.5,1.8,2.6,2943,171.80,0.78
2002-10-10 02:00,9.7,1.9,2.8,2945,147.30,0.59
2002-10-10 03:00,9.8,2.4,3.3,2942,145.00,1.37
2002-10-10 04:00,9.9,2.9,4.0,2941,112.80,1.76
2002-10-10 05:00,10.0,2.3,3.9,2941,111.10,0.78
2002-10-10 06:00,10.0,3.1,4.5,2946,100.20,1.57
2002-10-10 07:00,9.9,4.0,5.3,2937,75.20,2.74
2002-10-10 08:00,10.0,4.5,5.8,2947,119.90,2.94
2002-10-10 09:00,10.1,4.3,5.6,2904,107.80,2.35
2002-10-10 10:00,10.0,5.2,6.5,2917,108.30,3.53
2002-10-10 11:00,10.5,5.8,6.9,2933,120.90,3.92
2002-10-10 12:00,10.2,5.1,6.6,2919,104.50,3.14
2002-10-10 13:00,10.5,4.7,6.0,2904,105.70,2.94
2002-10-10 14:00,11.2,3.4,4.5,2904,137.00,1.37
2002-10-10 15:00,11.3,2.4,3.1,2909,154.50,1.37
2002-10-10 16:00,11.4,2.5,3.2,2889,148.90,1.37
2002-10-10 17:00,11.5,2.4,3.1,2919,164.10,1.57
2002-10-10 18:00,11.6,2.7,3.7,2901,153.50,1.76
2002-10-10 19:00,11.7,2.7,3.5,2922,173.30,1.57
2002-10-10 20:00,11.7,3.2,3.9,2940,143.90,1.96
2002-10-10 21:00,11.7,2.0,2.7,2928,128.90,1.18
2002-10-10 22:00,11.8,2.6,3.4,2941,136.70,1.57
2002-10-10 23:00,11.9,3.2,4.1,2944,140.00,1.76
2002-10-11 00:00,12.0,2.5,3.1,2944,137.30,1.76
2002-10-11 01:00,12.1,3.5,4.4,2948,135.50,2.35
2002-10-11 02:00,12.1,3.4,4.2,2947,150.10,2.35
2002-10-11 03:00,12.2,3.0,3.6,2948,145.40,2.16
2002-10-11 04:00,12.2,2.8,3.5,2948,135.50,1.96
2002-10-11 05:00,12.2,2.2,2.9,2938,138.00,1.37
2002-10-11 06:00,12.3,3.5,4.1,2934,142.00,2.55
2002-10-11 07:00,12.3,2.4,3.1,2945,134.50,1.76
2002-10-11 08:00,12.4,2.1,2.9,2938,138.60,1.57
2002-10-11 09:00,12.4,1.0,2.0,2948,109.80,0.39
2002-10-11 10:00,12.4,1.9,2.5,2940,115.10,0.98
2002-10-11 11:00,12.5,3.4,4.1,2926,110.80,2.16
2002-10-11 12:00,12.7,3.8,4.5,2930,120.50,2.94
2002-10-11 13:00,12.8,2.5,3.2,2911,117.20,1.37
2002-10-11 14:00,13.0,2.2,2.7,2859,120.60,1.37
2002-10-11 15:00,13.1,2.6,3.1,2891,110.60,1.57
2002-10-11 16:00,13.5,2.1,2.7,2818,99.60,1.18
2002-10-11 17:00,13.3,2.7,3.3,2736,101.60,1.96
2002-10-11 18:00,13.5,2.7,3.2,2862,108.40,1.57
2002-10-11 19:00,13.4,3.1,3.7,2856,107.10,2.16
2002-10-11 20:00,13.2,3.9,4.4,2840,104.50,2.74
2002-10-11 21:00,13.1,3.9,4.8,2864,107.20,2.74
2002-10-11 22:00,13.1,4.4,5.5,2851,99.70,3.14
2002-10-11 23:00,13.1,4.7,5.8,2877,91.10,3.14
2002-10-12 00:00,13.0,4.8,5.8,2893,87.90,3.53
2002-10-12 01:00,12.9,3.2,4.9,2886,78.80,2.16
2002-10-12 02:00,13.0,4.5,5.6,2871,74.90,2.94
2002-10-12 03:00,13.2,5.1,6.0,2832,83.30,3.92
2002-10-12 04:00,13.1,5.0,6.0,2812,90.70,3.53
2002-10-12 05:00,13.1,5.4,6.5,2819,85.50,3.72
2002-10-12 06:00,13.0,4.6,5.4,2820,86.70,3.14
2002-10-12 07:00,12.9,4.9,5.8,2843,76.40,3.53
2002-10-12 08:00,12.7,4.1,4.9,2842,61.60,2.94
2002-10-12 09:00,12.6,4.4,5.1,2855,46.30,3.14
2002-10-12 10:00,12.6,5.0,5.8,2835,61.70,3.72
2002-10-12 11:00,12.5,5.8,7.1,2816,65.90,3.92
2002-10-12 12:00,12.6,6.4,7.4,2831,63.90,4.31
2002-10-12 13:00,12.8,7.0,8.0,2285,60.10,4.51
2002-10-12 14:00,12.8,8.0,10.2,2720,74.30,5.49
2002-10-12 15:00,12.8,7.8,9.6,2812,74.60,5.29
2002-10-12 16:00,13.0,7.6,9.6,2712,81.10,4.90
2002-10-12 17:00,12.8,7.8,9.7,2770,81.20,5.10
2002-10-12 18:00,12.8,6.9,8.4,2767,80.00,4.70
2002-10-12 19:00,12.8,5.8,7.6,2737,67.80,3.53
2002-10-12 20:00,12.6,6.9,8.0,2792,61.20,4.70
2002-10-12 21:00,12.7,6.4,8.0,2823,54.60,4.12
2002-10-12 22:00,13.0,6.1,7.4,2861,52.10,4.12
2002-10-12 23:00,13.1,6.3,8.1,2859,52.50,4.51
2002-10-13 00:00,13.0,5.3,6.7,2853,50.70,3.92
2002-10-13 01:00,12.9,5.4,6.5,2844,49.40,3.92
2002-10-13 02:00,12.6,5.5,6.6,2796,43.70,4.12
2002-10-13 03:00,12.1,3.7,4.6,2789,32.91,2.55
2002-10-13 04:00,12.8,5.6,6.6,2781,62.50,3.72
2002-10-13 05:00,12.5,5.5,6.6,2776,62.10,3.92
2002-10-13 06:00,12.3,5.3,6.2,2759,60.20,3.92
2002-10-13 07:00,12.2,5.5,7.2,2746,52.60,3.33
2002-10-13 08:00,12.2,5.2,6.4,2712,47.80,3.53
2002-10-13 09:00,12.3,5.0,6.3,2727,45.30,2.94
2002-10-13 10:00,11.6,5.3,6.1,2661,31.09,3.72
2002-10-13 11:00,11.4,5.3,5.8,2660,23.79,3.53
2002-10-13 12:00,11.6,5.2,6.0,2670,25.15,3.72
2002-10-13 13:00,11.7,4.6,5.6,2671,22.39,3.14
2002-10-13 14:00,12.7,5.5,7.0,2584,61.00,3.33
2002-10-13 15:00,12.5,5.8,7.5,2560,71.80,3.72
2002-10-13 16:00,12.7,4.2,5.2,2652,76.20,2.74
2002-10-13 17:00,13.1,4.6,6.3,2658,65.20,2.55
2002-10-13 18:00,12.5,4.8,5.9,1602,74.00,2.35
2002-10-13 19:00,12.2,4.5,5.3,1979,71.10,2.94
2002-10-13 20:00,13.1,7.2,8.6,2704,83.00,4.70
2002-10-13 21:00,13.0,5.5,7.2,2672,85.30,3.92
2002-10-13 22:00,13.2,6.1,7.8,2617,100.10,4.12
2002-10-13 23:00,13.3,5.2,6.8,2651,112.50,3.33
2002-10-14 00:00,13.2,7.1,8.8,2585,112.90,4.70
2002-10-14 01:00,13.1,7.3,8.6,2415,117.90,4.12
2002-10-14 02:00,13.2,6.8,8.4,2344,124.70,4.51
2002-10-14 03:00,13.3,4.1,5.1,2315,159.60,2.16
2002-10-14 04:00,13.2,3.3,4.5,1473,174.80,1.76
2002-10-14 05:00,13.2,2.5,3.3,2026,265.60,0.98
2002-10-14 06:00,13.1,0.1,1.8,1686,,0.00
2002-10-14 07:00,12.3,7.3,9.7,2874,300.50,4.51
2002-10-14 08:00,11.1,8.9,10.6,2491,327.13,5.68
2002-10-14 09:00,11.2,8.8,11.2,2942,328.06,5.88
2002-10-14 10:00,10.6,10.1,12.6,2925,309.30,6.08
2002-10-14 11:00,9.8,9.9,12.6,2936,315.30,6.27
2002-10-14 12:00,9.2,10.0,13.7,2939,310.90,6.66
2002-10-14 13:00,8.6,8.9,11.1,2843,315.70,6.08
2002-10-14 14:00,8.7,8.8,12.0,2898,315.40,5.29
2002-10-14 15:00,8.7,8.8,10.8,2878,306.30,5.68
2002-10-14 16:00,10.1,9.8,11.8,2888,315.10,6.66
2002-10-14 17:00,9.9,10.4,13.2,2901,330.86,6.47
2002-10-14 18:00,10.2,12.4,15.4,2886,314.90,7.45
2002-10-14 19:00,10.2,12.3,14.4,2918,339.74,8.23
2002-10-14 20:00,10.6,10.7,13.0,2919,313.70,6.66
2002-10-14 21:00,10.6,9.6,12.4,2906,315.80,6.27
2002-10-14 22:00,10.1,8.1,10.1,2943,313.20,5.49
2002-10-14 23:00,9.5,7.5,8.8,2945,321.60,5.49
2002-10-15 00:00,9.1,6.8,8.4,2942,323.30,4.51
2002-10-15 01:00,8.8,7.9,10.5,2937,324.40,5.68
2002-10-15 02:00,8.1,8.4,9.9,2946,334.55,5.49
2002-10-15 03:00,7.9,9.3,11.1,2933,336.49,6.47
2002-10-15 04:00,7.5,9.1,11.5,2940,328.52,5.88
2002-10-15 05:00,7.1,10.1,12.0,2926,346.45,7.06
2002-10-15 06:00,6.9,9.7,11.8,2935,347.59,6.66
2002-10-15 07:00,6.5,8.9,10.4,2939,357.19,6.27
2002-10-15 08:00,5.8,7.4,9.1,2941,3.05,4.90
2002-10-15 09:00,5.7,7.0,8.8,2940,11.37,4.51
2002-10-15 10:00,5.2,6.7,8.7,2937,28.69,4.12
2002-10-15 11:00,4.9,6.3,8.0, 363,27.71,3.72
2002-10-15 12:00,5.0,4.0,5.4,2915,13.19,1.96
2002-10-15 13:00,5.1,3.1,4.6,2933,28.93,1.57
2002-10-15 14:00,5.4,1.9,3.3,2900,12.76,0.20
2002-10-15 15:00,5.3,1.6,2.7,2848,349.51,0.20
2002-10-15 16:00,6.1,0.4,1.3,2865,263.00,0.00
2002-10-15 17:00,6.2,1.4,2.0,2830,120.60,0.39
2002-10-15 18:00,6.9,3.0,4.0,2834,176.40,1.57
2002-10-15 19:00,7.2,4.9,6.6,2880,180.80,3.53
2002-10-15 20:00,7.5,5.1,6.7,2452,191.10,3.33
2002-10-15 21:00,7.7,4.3,5.8,2480,211.20,1.96
2002-10-15 22:00,7.8,3.9,5.5,2937,203.10,1.57
2002-10-15 23:00,8.0,4.0,4.8,2950,204.30,2.74
2002-10-16 00:00,8.2,4.5,5.6,2937,206.50,2.35
2002-10-16 01:00,8.2,2.9,4.3,2943,251.40,1.76
2002-10-16 02:00,8.3,1.4,2.5,2941,227.10,0.20
2002-10-16 03:00,8.4,1.6,2.7,2947,173.70,0.78
2002-10-16 04:00,8.4,1.8,2.7,2948,172.20,0.59
2002-10-16 05:00,8.7,2.6,3.9,2944,141.00,1.37
2002-10-16 06:00,8.6,3.2,4.1,2946,138.70,2.16
2002-10-16 07:00,8.7,2.8,4.2,2944,144.70,1.37
2002-10-16 08:00,8.9,3.2,4.3,2949,133.50,1.96
2002-10-16 09:00,9.2,3.6,4.6,2943,135.40,2.16
2002-10-16 10:00,9.4,3.4,4.7,2947,112.90,1.76
2002-10-16 11:00,9.5,3.7,4.7,2944,62.00,2.55
2002-10-16 12:00,9.9,5.5,6.7,2940,63.70,3.92
2002-10-16 13:00,10.3,5.9,7.2,2935,65.00,4.31
2002-10-16 14:00,10.7,7.7,9.5,2936,72.00,5.29
2002-10-16 15:00,10.8,7.6,9.2,2920,76.70,5.29
2002-10-16 16:00,10.9,7.9,9.8,2913,75.90,4.90
2002-10-16 17:00,11.0,8.0,9.8,2922,65.60,5.10
2002-10-16 18:00,10.8,8.8,10.8,2450,69.50,5.10
2002-10-16 19:00,10.7,10.9,13.8,2231,74.90,7.45
2002-10-16 20:00,9.7,10.3,12.4,2447,64.60,7.45
2002-10-16 21:00,10.3,11.0,12.5,1918,64.20,6.47
2002-10-16 22:00,10.5,12.4,15.6,1347,60.50,7.64
2002-10-16 23:00,10.4,13.4,16.3,1377,65.10,9.02
2002-10-17 00:00,10.6,14.1,17.2,1284,58.10,8.82
2002-10-17 01:00,11.1,15.0,18.5,2094,72.20,9.60
2002-10-17 02:00,11.1,15.9,20.7,2055,78.00,9.21
2002-10-17 03:00,11.3,15.0,20.8,1877,76.70,10.00
2002-10-17 04:00,12.2,15.1,18.1,1692,77.80,9.02
2002-10-17 05:00,12.6,15.4,18.5,1804,83.80,10.19
2002-10-17 06:00,13.0,13.0,16.0,1453,95.50,6.27
2002-10-17 07:00,14.1,11.6,14.0,1922,133.70,7.25
2002-10-17 08:00,13.3,9.9,13.4,2389,175.70,6.47
2002-10-17 09:00,13.1,9.8,12.5,2563,183.90,5.88
2002-10-17 10:00,12.4,11.5,13.9,2658,209.10,8.04
2002-10-17 11:00,12.1,10.2,12.3,2912,252.50,6.66
2002-10-17 12:00,11.2,7.9,9.9,2941,247.90,4.70
2002-10-17 13:00,11.3,8.4,12.0,2858,284.60,4.70
2002-10-17 14:00,11.2,5.9,8.2,2894,279.10,3.92
2002-10-17 15:00,11.2,6.9,9.7,2395,267.50,4.12
2002-10-17 16:00,11.7,6.0,7.4,2077,265.40,4.12
2002-10-17 17:00,12.7,4.4,6.0,2243,296.00,2.35
2002-10-17 18:00,13.8,3.9,4.8,2374,303.20,2.16
2002-10-17 19:00,13.4,5.1,6.4,2946,316.60,3.33
2002-10-17 20:00,13.4,4.3,5.7,2950,310.80,2.74
2002-10-17 21:00,14.1,2.8,3.9,2925,324.90,1.76
2002-10-17 22:00,13.0,2.6,3.2,2949,327.31,1.18
2002-10-17 23:00,12.7,2.4,3.0,2951,339.93,1.37
2002-10-18 00:00,12.0,3.5,4.2,2925,237.80,1.96
2002-10-18 01:00,11.1,3.8,4.6,2934,282.70,2.74
2002-10-18 02:00,11.2,3.5,5.0,2939,322.30,1.57
2002-10-18 03:00,10.1,6.4,7.4,2939,4.69,4.51
2002-10-18 04:00,9.4,7.3,8.4,2942,11.48,5.10
2002-10-18 05:00,9.0,7.1,8.3,2941,33.74,4.90
2002-10-18 06:00,8.6,5.9,7.0,2941,48.30,3.72
2002-10-18 07:00,8.6,4.0,5.1,2940,44.40,2.16
2002-10-18 08:00,8.9,4.8,6.0,2928,60.30,2.94
2002-10-18 09:00,8.9,5.5,6.6,2922,66.60,3.14
2002-10-18 10:00,9.8,6.3,8.0,2921,87.80,3.72
2002-10-18 12:00,10.7,5.9,7.9,2694,74.20,3.53
2002-10-18 13:00,10.0,9.1,14.0,1653,280.30,2.55
2002-10-18 14:00,7.8,9.7,11.1,2901,330.45,6.86
2002-10-18 15:00,8.0,6.6,8.5,2902,335.25,5.10
2002-10-18 16:00,9.4,6.3,8.1,2875,312.30,4.31
2002-10-18 17:00,10.0,6.5,8.4,2901,300.00,4.12
2002-10-18 18:00,10.4,6.3,7.4,2900,308.30,4.12
2002-10-18 19:00,11.2,6.0,8.7,2903,280.40,3.72
2002-10-18 20:00,11.4,6.8,9.4,2936,283.60,4.12
2002-10-18 21:00,11.2,6.6,8.1,2936,293.70,4.51
2002-10-18 22:00,10.4,4.8,6.3,2941,287.90,2.94
2002-10-18 23:00,9.8,4.9,6.0,2942,278.90,3.14
2002-10-19 00:00,8.7,4.6,5.5,2948,253.50,3.14
2002-10-19 01:00,8.4,5.9,7.0,2942,272.70,3.92
2002-10-19 02:00,7.5,5.0,6.1,2931,271.90,3.72
2002-10-19 03:00,7.1,4.7,5.5,2930,274.20,3.33
2002-10-19 04:00,7.5,4.6,5.6,2942,287.10,3.53
2002-10-19 05:00,8.3,4.2,4.8,2943,291.10,3.14
2002-10-19 06:00,7.8,2.8,3.3,2948,287.10,1.96
2002-10-19 07:00,7.2,2.5,3.2,2928,251.40,1.76
2002-10-19 08:00,7.6,1.1,2.0,2947,223.90,0.39
2002-10-19 09:00,9.1,2.6,3.3,2947,144.60,1.57
2002-10-19 10:00,10.4,5.7,6.9,2937,168.00,4.12
2002-10-19 11:00,11.1,7.3,8.7,2929,190.50,4.90
2002-10-19 12:00,11.5,8.5,9.9,2908,188.20,5.49
2002-10-19 13:00,11.6,10.0,11.7,2898,182.50,7.45
2002-10-19 14:00,11.9,10.5,12.9,2877,177.60,7.64
2002-10-19 15:00,12.1,10.8,13.3,2824,180.90,6.08
2002-10-19 16:00,12.3,11.7,13.8,2786,184.50,8.43
2002-10-19 17:00,12.4,12.0,15.6,2774,183.00,6.86
2002-10-19 18:00,12.4,12.8,16.1,2752,178.20,8.23
2002-10-19 19:00,12.4,12.4,15.2,2688,175.60,8.43
2002-10-19 20:00,12.6,13.5,16.2,2528,174.60,9.41
2002-10-19 21:00,12.9,13.8,17.0,2453,174.20,9.41
2002-10-19 22:00,13.0,13.5,16.2,2019,193.40,8.82
2002-10-19 23:00,13.1,14.0,18.5,2586,213.50,9.21
2002-10-20 00:00,13.2,10.9,13.2,2546,207.80,7.25
2002-10-20 01:00,13.1,9.7,11.3,2637,225.10,6.86
2002-10-20 02:00,13.0,9.8,11.8,2734,219.50,7.06
2002-10-20 03:00,13.0,10.2,12.7,2789,220.70,6.66
2002-10-20 04:00,12.9,9.0,10.9,2766,230.10,6.27
2002-10-20 05:00,12.3,6.8,8.1,2880,248.70,4.70
2002-10-20 06:00,11.9,7.6,9.4,2892,249.80,4.90
2002-10-20 07:00,11.4,6.8,8.6,2903,256.60,4.90
2002-10-20 08:00,10.7,4.6,6.5,2925,255.10,2.74
2002-10-20 09:00,10.7,5.5,6.7,2913,237.70,3.92
2002-10-20 10:00,10.2,6.3,8.0,2909,236.70,4.31
2002-10-20 11:00,9.4,6.9,8.1,2927,258.40,4.90
2002-10-20 12:00,9.2,7.1,8.5,2909,248.10,5.10
2002-10-20 13:00,9.7,5.7,7.7,2919,268.40,3.92
2002-10-20 14:00,10.6,5.2,7.4,2921,280.10,2.94
2002-10-20 15:00,11.1,7.9,10.7,2910,277.10,4.90
2002-10-20 16:00,10.9,7.8,9.8,2898,305.90,5.29
2002-10-20 17:00,10.6,9.3,11.6,2927,294.90,6.08
2002-10-20 18:00,10.2,8.9,11.2,2907,315.90,5.29
2002-10-20 19:00,10.2,8.2,9.9,2924,308.40,5.10
2002-10-20 20:00,10.1,8.1,9.9,2837,300.10,4.90
2002-10-20 21:00,9.6,8.0,9.6,2942,278.70,5.68
2002-10-20 22:00,8.3,8.0,10.6,2942,300.40,5.29
2002-10-20 23:00,7.4,7.3,8.8,2943,301.50,4.51
2002-10-21 00:00,6.7,6.8,9.4,2940,296.20,3.92
2002-10-21 01:00,5.7,6.6,8.4,2937,299.10,4.31
2002-10-21 02:00,5.2,4.8,6.0,2927,283.30,3.33
2002-10-21 03:00,4.5,3.9,5.1,2933,274.00,2.16
2002-10-21 04:00,4.4,3.9,4.6,2927,286.80,2.74
2002-10-21 05:00,4.3,3.2,4.0,2876,261.00,2.16
2002-10-21 06:00,4.4,1.6,2.6,2921,311.60,0.59
2002-10-21 07:00,4.5,2.1,3.1,2912,254.90,1.18
2002-10-21 08:00,4.7,3.4,4.1,2934,248.90,2.55
2002-10-21 09:00,5.2,2.9,3.8,2941,238.70,1.76
2002-10-21 10:00,5.3,3.4,4.2,2939,249.70,2.35
2002-10-21 11:00,6.0,2.9,3.8,2934,228.50,1.96
2002-10-21 12:00,6.7,1.5,2.4,2925,254.70,0.59
2002-10-21 13:00,6.7,2.1,3.6,2913,283.20,0.98
2002-10-21 14:00,6.7,6.0,7.8,2910,280.80,4.51
2002-10-21 15:00,6.9,7.8,9.5,2927,328.44,4.90
2002-10-21 16:00,7.4,7.2,9.3,2755,304.80,3.92
2002-10-21 17:00,7.7,8.9,10.8,2576,313.50,6.27
2002-10-21 18:00,8.1,8.6,10.1,2914,291.80,5.88
2002-10-21 19:00,8.1,8.8,10.4,2937,306.40,5.88
2002-10-21 20:00,7.8,8.0,9.3,2922,301.90,5.68
2002-10-21 21:00,7.6,9.2,11.2,2920,302.60,6.08
2002-10-21 22:00,6.9,9.1,12.4,2939,311.20,6.08
2002-10-21 23:00,6.0,8.5,10.5,2937,304.60,5.10
2002-10-22 00:00,5.2,7.9,9.5,2937,321.20,5.10
2002-10-22 01:00,4.6,8.4,11.1,2943,321.50,5.68
2002-10-22 02:00,4.0,6.1,7.7,2941,319.80,4.12
2002-10-22 03:00,3.7,6.2,8.3,2949,319.80,4.31
2002-10-22 04:00,3.5,5.2,7.3,2942,313.90,3.14
2002-10-22 05:00,3.1,2.7,3.9,2940,269.40,1.18
2002-10-22 06:00,2.8,3.3,4.4,2942,277.00,2.16
2002-10-22 07:00,2.9,4.9,6.6,2940,262.90,3.53
2002-10-22 08:00,3.0,4.4,5.5,2939,285.50,2.94
2002-10-22 09:00,2.6,4.1,4.8,2943,274.70,2.94
2002-10-22 10:00,2.9,4.6,5.4,2926,254.60,3.33
2002-10-22 11:00,2.6,4.5,5.4,2912,259.00,3.53
2002-10-22 12:00,2.0,5.6,6.9,2862,264.90,3.92
2002-10-22 13:00,2.7,5.5,7.0,2885,273.00,3.72
2002-10-22 14:00,3.8,6.1,8.1,2894,266.60,4.31
2002-10-22 15:00,4.9,6.8,9.1,2874,287.20,4.12
2002-10-22 16:00,5.4,7.1,9.4,2863,293.10,4.70
2002-10-22 17:00,6.3,7.6,9.7,2898,281.10,4.70
2002-10-22 18:00,7.1,6.7,9.0,2214,298.60,4.51
2002-10-22 19:00,7.2,7.0,9.1,2925,292.20,4.70
2002-10-22 20:00,7.6,6.0,7.9,2929,312.10,3.92
2002-10-22 21:00,8.4,5.2,7.3,2928,271.70,2.94
2002-10-22 22:00,8.0,7.1,8.7,2942,281.80,4.90
2002-10-22 23:00,7.4,7.5,8.6,2937,271.10,5.68
2002-10-23 00:00,6.7,8.1,9.5,2939,282.10,6.08
2002-10-23 01:00,6.0,6.8,8.2,2942,292.60,4.31
2002-10-23 02:00,5.9,7.6,9.1,2942,299.40,5.49
2002-10-23 03:00,5.2,7.3,9.0,2935,292.90,4.90
2002-10-23 04:00,4.7,5.6,7.0,2938,292.40,3.72
2002-10-23 05:00,4.1,5.4,6.9,2919,281.60,4.12
2002-10-23 06:00,3.4,4.0,5.3,2937,287.60,2.74
2002-10-23 07:00,3.7,5.2,6.6,2927,283.90,3.72
2002-10-23 08:00,3.3,3.7,5.0,2926,289.40,2.16
2002-10-23 09:00,3.5,4.9,6.7,2927,290.10,3.14
2002-10-23 10:00,3.5,3.3,5.4,2931,290.00,1.96
2002-10-23 11:00,3.5,4.2,6.0,2926,288.70,2.35
2002-10-23 12:00,3.8,2.9,4.0,2924,303.20,1.57
2002-10-23 13:00,3.3,4.1,5.0,2930,276.10,2.94
2002-10-23 14:00,3.7,3.0,4.2,2913,268.60,1.18
2002-10-23 15:00,3.4,4.2,5.9,2908,263.20,2.35
2002-10-23 16:00,4.4,3.3,4.5,2912,271.30,1.96
2002-10-23 17:00,5.9,2.5,3.7,2913,309.70,0.78
2002-10-23 18:00,7.5,0.6,1.8,2834,2.12,0.00
2002-10-23 19:00,8.2,5.8,7.3,2027,319.70,3.72
2002-10-23 20:00,7.9,5.5,8.0,2925,329.38,3.53
2002-10-23 21:00,8.1,7.0,8.9,2930,329.29,4.31
2002-10-23 22:00,7.9,7.3,8.6,2945,333.88,5.29
2002-10-23 23:00,6.9,6.8,8.6,2940,325.10,4.31
2002-10-24 00:00,6.0,8.6,10.0,2938,316.90,5.68
2002-10-24 01:00,5.1,7.3,9.6,2944,304.60,4.51
2002-10-24 02:00,5.2,10.8,12.5,2928,324.30,7.64
2002-10-24 03:00,5.2,9.5,11.3,2935,323.60,6.47
2002-10-24 04:00,4.9,8.9,10.8,2941,325.47,6.47
2002-10-24 05:00,5.0,8.5,10.1,2930,325.86,6.08
2002-10-24 06:00,4.8,7.4,8.7,2948,325.00,5.10
2002-10-24 07:00,5.0,6.3,7.9,2947,326.63,3.92
2002-10-24 08:00,4.5,5.3,6.7,2950,302.40,3.92
2002-10-24 09:00,5.2,7.0,8.6,2949,315.30,4.70
2002-10-24 10:00,5.5,7.0,8.6,2951,321.60,4.90
2002-10-24 11:00,5.2,5.0,6.4,2942,294.80,3.14
2002-10-24 12:00,5.6,6.7,8.3,2934,325.64,4.51
2002-10-24 13:00,5.6,7.2,8.6,2933,331.70,4.90
2002-10-24 14:00,5.9,6.1,7.5,2938,334.25,3.92
2002-10-24 15:00,6.2,4.4,6.8,2903,354.35,2.74
2002-10-24 16:00,6.8,3.4,4.7,2913,353.18,2.16
2002-10-24 17:00,7.1,3.5,4.6,2917,5.06,1.96
2002-10-24 18:00,7.7,2.5,3.9,2927,357.13,0.98
2002-10-24 19:00,7.9,1.9,2.6,2931,346.19,0.98
2002-10-24 20:00,8.1,2.6,3.9,2935,352.28,1.76
2002-10-24 21:00,8.2,2.8,4.0,2942,349.35,1.37
2002-10-24 22:00,8.0,2.2,3.0,2947,320.80,0.98
2002-10-24 23:00,7.9,1.8,3.1,2952,328.92,0.78
2002-10-25 00:00,8.0,2.6,4.5,2946,346.24,1.18
2002-10-25 01:00,7.9,2.7,4.1,2946,350.62,1.18
2002-10-25 02:00,7.6,4.3,5.2,2948,350.43,2.74
2002-10-25 03:00,7.4,4.4,5.6,2951,350.17,2.35
2002-10-25 04:00,7.3,5.1,6.4,2948,355.85,3.33
2002-10-25 05:00,7.2,6.4,7.8,2949,349.66,4.51
2002-10-25 06:00,7.0,5.7,6.6,2951,355.44,3.72
2002-10-25 07:00,6.8,6.2,7.8,2939,355.03,4.31